TimeCET,TemperatureF,Dew PointF,Humidity,Sea Level PressureIn,VisibilityMPH,Wind Direction,Wind SpeedMPH,Gust SpeedMPH,PrecipitationIn,Events,Conditions,WindDirDegrees,DateUTC
12:00 AM,19.4,17.6,93,29.53,2.2,NNE,4.6,-,N/A,Snow,Light Snow,20,2013-01-21 23:00:00
12:30 AM,19.4,17.6,93,29.56,2.2,NNE,3.5,-,N/A,Snow,Light Snow,20,2013-01-21 23:30:00
1:00 AM,19,17,87,29.66,2,NE,4.5,,,Snow,Light Snow,40,2013-01-22 00:00:00
1:00 AM,19.4,17.6,93,29.56,2.5,NNE,4.6,-,N/A,,Overcast,20,2013-01-22 00:00:00
1:30 AM,19.4,17.6,93,29.56,2.5,NNE,4.6,-,N/A,,Overcast,30,2013-01-22 00:30:00
2:00 AM,19.4,15.8,86,29.56,2.8,North,4.6,-,N/A,,Overcast,360,2013-01-22 01:00:00
2:30 AM,17.6,15.8,93,29.56,3.1,NNE,4.6,-,N/A,,Overcast,20,2013-01-22 01:30:00
3:00 AM,17.6,15.8,93,29.56,3.1,NNE,4.6,-,N/A,,Overcast,20,2013-01-22 02:00:00
3:30 AM,17.6,15.8,93,29.56,3.7,North,3.5,-,N/A,,Overcast,10,2013-01-22 02:30:00
4:00 AM,17.6,14.0,86,29.59,3.7,North,3.5,-,N/A,,Overcast,10,2013-01-22 03:00:00
4:30 AM,17.6,14.0,86,29.59,3.7,North,3.5,-,N/A,,Overcast,350,2013-01-22 03:30:00
5:00 AM,17.6,14.0,86,29.59,3.7,NNE,3.5,-,N/A,,Overcast,20,2013-01-22 04:00:00
5:30 AM,17.6,14.0,86,29.59,3.7,NNE,3.5,-,N/A,,Overcast,30,2013-01-22 04:30:00
6:00 AM,17.6,14.0,86,29.59,3.7,North,2.3,-,N/A,,Overcast,10,2013-01-22 05:00:00
6:30 AM,17.6,14.0,86,29.59,3.7,NNW,2.3,-,N/A,,Overcast,340,2013-01-22 05:30:00
7:00 AM,17,14,83,29.71,4,North,4.5,,,,Mist,0,2013-01-22 06:00:00
7:00 AM,17.6,14.0,86,29.59,3.7,North,2.3,-,N/A,,Overcast,350,2013-01-22 06:00:00
7:30 AM,17.6,14.0,86,29.59,3.1,NNW,3.5,-,N/A,,Overcast,340,2013-01-22 06:30:00
7:48 AM,17.6,14.0,86,29.62,2.5,NNE,4.6,-,N/A,,Mostly Cloudy,30,2013-01-22 06:48:00
8:00 AM,17.6,14.0,86,29.62,2.5,NNE,4.6,-,N/A,,Overcast,30,2013-01-22 07:00:00
8:30 AM,17.6,14.0,86,29.62,2.5,NE,2.3,-,N/A,,Overcast,40,2013-01-22 07:30:00
9:00 AM,17.6,14.0,86,29.65,2.5,NE,2.3,-,N/A,,Overcast,50,2013-01-22 08:00:00
9:30 AM,17.6,14.0,86,29.65,2.5,Variable,1.2,-,N/A,,Overcast,0,2013-01-22 08:30:00
10:00 AM,17.6,15.8,93,29.65,2.5,Calm,Calm,-,N/A,,Overcast,0,2013-01-22 09:00:00
10:30 AM,19.4,15.8,86,29.65,-9999.0,Variable,1.2,-,N/A,,Overcast,0,2013-01-22 09:30:00
11:00 AM,19.4,15.8,86,29.65,-9999.0,NNE,3.5,-,N/A,,Overcast,30,2013-01-22 10:00:00
11:30 AM,19.4,15.8,86,29.65,2.5,Variable,2.3,-,N/A,,Overcast,0,2013-01-22 10:30:00
12:00 PM,19.4,15.8,86,29.65,2.5,Variable,1.2,-,N/A,,Overcast,0,2013-01-22 11:00:00
12:30 PM,19.4,15.8,86,29.65,2.5,NE,3.5,-,N/A,,Overcast,40,2013-01-22 11:30:00
1:00 PM,20,15,72,29.76,2,East,2.2,,,,Mist,90,2013-01-22 12:00:00
1:00 PM,19.4,15.8,86,29.65,2.5,Variable,2.3,-,N/A,,Overcast,0,2013-01-22 12:00:00
1:30 PM,21.2,15.8,80,29.65,-9999.0,NNE,4.6,-,N/A,,Overcast,30,2013-01-22 12:30:00
2:00 PM,19.4,15.8,86,29.65,-9999.0,NNE,6.9,-,N/A,,Mostly Cloudy,30,2013-01-22 13:00:00
2:30 PM,19.4,14.0,80,29.65,2.5,NNE,4.6,-,N/A,,Mostly Cloudy,20,2013-01-22 13:30:00
3:00 PM,19.4,15.8,86,29.65,-9999.0,NNE,3.5,-,N/A,,Overcast,30,2013-01-22 14:00:00
3:30 PM,19.4,15.8,86,29.65,-9999.0,NNE,4.6,-,N/A,,Overcast,20,2013-01-22 14:30:00
4:00 PM,19.4,15.8,86,29.68,-9999.0,NNE,3.5,-,N/A,,Overcast,30,2013-01-22 15:00:00
4:30 PM,19.4,15.8,86,29.68,-9999.0,ENE,3.5,-,N/A,,Overcast,60,2013-01-22 15:30:00
5:00 PM,19.4,15.8,86,29.68,2.8,ENE,3.5,-,N/A,,Overcast,60,2013-01-22 16:00:00
5:30 PM,19.4,15.8,86,29.68,3.7,NE,4.6,-,N/A,,Overcast,40,2013-01-22 16:30:00
6:00 PM,19.4,15.8,86,29.68,3.7,NE,2.3,-,N/A,,Overcast,40,2013-01-22 17:00:00
6:30 PM,19.4,15.8,86,29.71,3.7,NNE,3.5,-,N/A,,Overcast,30,2013-01-22 17:30:00
7:00 PM,20,15,72,29.81,3,NNE,4.5,,,,Mist,20,2013-01-22 18:00:00
7:00 PM,19.4,15.8,86,29.71,3.1,North,3.5,-,N/A,,Overcast,10,2013-01-22 18:00:00
7:30 PM,19.4,15.8,86,29.71,3.1,NNE,3.5,-,N/A,,Overcast,30,2013-01-22 18:30:00
8:00 PM,19.4,15.8,86,29.71,3.1,NNE,5.8,-,N/A,,Overcast,30,2013-01-22 19:00:00
8:30 PM,19.4,15.8,86,29.71,3.1,NE,5.8,-,N/A,,Overcast,50,2013-01-22 19:30:00
9:00 PM,19.4,14.0,80,29.71,3.7,NNE,5.8,-,N/A,,Overcast,30,2013-01-22 20:00:00
9:30 PM,19.4,14.0,80,29.71,3.7,NNE,3.5,-,N/A,,Overcast,20,2013-01-22 20:30:00
10:00 PM,19.4,14.0,80,29.71,3.7,NNE,4.6,-,N/A,,Overcast,30,2013-01-22 21:00:00
10:30 PM,19.4,15.8,86,29.71,3.7,NNE,4.6,-,N/A,,Overcast,20,2013-01-22 21:30:00
11:00 PM,19.4,15.8,86,29.71,3.7,NNE,4.6,-,N/A,,Overcast,30,2013-01-22 22:00:00
11:30 PM,19.4,15.8,86,29.71,3.7,NNE,3.5,-,N/A,,Overcast,20,2013-01-22 22:30:00